User: anonymous   Login
Location: �clusier
(49.9361°N, 2.7869°E)
Time: 11:49:35
(UTC+00:00)
Language:

Cosmos 2237 Rocket - Orbit

View from above orbital plane
View from above orbital plane
View from above satellite
View from above satellite

Ground track
Ground track

The orbit data is extracted from the following two-line orbital elements,

1 22566U 93016B   21270.61434489 -.00000237  00000-0 -97645-4 0  9990
2 22566  71.0106  25.1268 0012877 274.6580  85.3072 14.14978298472415
Epoch (UTC): 27 September 2021 14:44:39
Eccentricity: 0.0012877
inclination: 71.0106°
perigee height: 833 km
apogee height: 851 km
right ascension of ascending node: 25.1268°
argument of perigee: 274.6580°
revolutions per day: 14.14978298
mean anomaly at epoch: 85.3072°
orbit number at epoch: 47241

The dashed part of the orbit path shows where the satellite is in the earth's shadow,  

DLR